Location: Passau
(48.5830°N, 13.4830°E)
Time: 03:44:52
(UTC+02:00)

Courier 1B Rocket - Pass Details

Date: 02 August 2021
Orbit: 920 x 1202 km, 28.3° (Epoch: 22 September)

Event Time Altitude Azimuth Distance (km) Brightness Sun altitude
Exits shadow 04:14:48 11° 193° (SSW) 2,634 6.8 -12.3°
Maximum altitude 04:16:02 11° 181° (S) 2,578 6.8 -12.1°
Drops below altitude 10° 04:17:53 10° 164° (SSE) 2,655 7.0 -11.9°
Sets 04:22:40 0° 132° (SE) 3,561 8.0 -11.3°
